| time (UTC) | temp F | wind direction | speed MPH | gust MPH | rain 1hr in | rain 24hr in | rain mn in | humidity % | barometer mb |
| 20260906210040 | 76 | 74 | 1.0 | 4.0 | 0.00 | 0.00 | 0.00 | 32 | 1014.8 |
| 20260906204536 | 77 | 22 | 0.0 | 3.0 | 0.00 | 0.00 | 0.00 | 31 | 1014.8 |
| 20260906203027 | 76 | 32 | 0.0 | 4.0 | 0.00 | 0.00 | 0.00 | 30 | 1014.8 |
| 20260906201523 | 76 | 84 | 0.0 | 3.0 | 0.00 | 0.00 | 0.00 | 28 | 1014.8 |
| 20260906200033 | 75 | 57 | 1.0 | 4.0 | 0.00 | 0.00 | 0.00 | 29 | 1014.7 |
| 20260906194514 | 75 | 50 | 2.0 | 6.0 | 0.00 | 0.00 | 0.00 | 29 | 1014.6 |
| 20260906193009 | 76 | 63 | 0.0 | 5.0 | 0.00 | 0.00 | 0.00 | 28 | 1014.7 |
| 20260906191509 | 77 | 282 | 0.0 | 2.0 | 0.00 | 0.00 | 0.00 | 26 | 1014.7 |
| 20260906190100 | 75 | 58 | 0.0 | 5.0 | 0.00 | 0.00 | 0.00 | 25 | 1014.7 |
| 20260906184556 | 75 | 37 | 0.0 | 3.0 | 0.00 | 0.00 | 0.00 | 27 | 1014.8 |
| 20260906183052 | 76 | 48 | 1.0 | 6.0 | 0.00 | 0.00 | 0.00 | 27 | 1014.9 |
| 20260906181615 | 76 | 231 | 0.0 | 3.0 | 0.00 | 0.00 | 0.00 | 24 | 1014.9 |
| 20260906180043 | 74 | 25 | 0.0 | 4.0 | 0.00 | 0.00 | 0.00 | 23 | 1014.9 |
| 20260906174544 | 74 | 70 | 1.0 | 5.0 | 0.00 | 0.00 | 0.00 | 22 | 1015.1 |
| 20260906173034 | 75 | 5 | 0.0 | 5.0 | 0.00 | 0.00 | 0.00 | 23 | 1015.1 |
| 20260906171530 | 76 | 33 | 0.0 | 2.0 | 0.00 | 0.00 | 0.00 | 22 | 1015.1 |
| 20260906170025 | 76 | 75 | 3.0 | 7.0 | 0.00 | 0.00 | 0.00 | 21 | 1015.2 |
| 20260906164523 | 76 | 65 | 0.0 | 4.0 | 0.00 | 0.00 | 0.00 | 19 | 1015.2 |
| 20260906163017 | 75 | 17 | 1.0 | 6.0 | 0.00 | 0.00 | 0.00 | 17 | 1015.2 |
| 20260906161511 | 75 | 30 | 0.0 | 3.0 | 0.00 | 0.00 | 0.00 | 15 | 1015.3 |
| 20260906160006 | 75 | 330 | 0.0 | 2.0 | 0.00 | 0.00 | 0.00 | 10 | 1015.4 |
| 20260906154505 | 74 | 297 | 1.0 | 3.0 | 0.00 | 0.00 | 0.00 | 6 | 1015.5 |
| 20260906153058 | 72 | 230 | 0.0 | 1.0 | 0.00 | 0.00 | 0.00 | 1 | 1015.7 |
| 20260906151555 | 73 | 230 | 0.0 | 3.0 | 0.00 | 0.00 | 0.00 | 1 | 1015.7 |
| 20260906150050 | 71 | 92 | 1.0 | 4.0 | 0.00 | 0.00 | 0.00 | 1 | 1015.6 |
| 20260906144604 | 69 | 56 | 1.0 | 5.0 | 0.00 | 0.00 | 0.00 | 1 | 1015.6 |
| 20260906143042 | 69 | 73 | 1.0 | 4.0 | 0.00 | 0.00 | 0.00 | 1 | 1015.7 |
| 20260906141537 | 69 | 70 | 1.0 | 5.0 | 0.00 | 0.00 | 0.00 | 1 | 1015.6 |
| 20260906140031 | 69 | 81 | 1.0 | 5.0 | 0.00 | 0.00 | 0.00 | 1 | 1015.5 |
| 20260906134531 | 69 | 56 | 1.0 | 6.0 | 0.00 | 0.00 | 0.00 | 1 | 1015.5 |
| 20260906133023 | 70 | 21 | 1.0 | 6.0 | 0.00 | 0.00 | 0.00 | 1 | 1015.4 |
| 20260906131519 | 69 | 3 | 0.0 | 6.0 | 0.00 | 0.00 | 0.00 | 1 | 1015.3 |
| 20260906130014 | 68 | 75 | 2.0 | 4.0 | 0.00 | 0.00 | 0.00 | 1 | 1015.2 |
| 20260906124510 | 68 | 359 | 0.0 | 1.0 | 0.00 | 0.00 | 0.00 | 1 | 1015.1 |
| 20260906123010 | 66 | 79 | 1.0 | 3.0 | 0.00 | 0.00 | 0.00 | 1 | 1014.9 |
| 20260906121502 | 65 | 72 | 1.0 | 4.0 | 0.00 | 0.00 | 0.00 | 1 | 1014.9 |
| 20260906120057 | 64 | 349 | 1.0 | 3.0 | 0.00 | 0.00 | 0.00 | 1 | 1014.8 |
| 20260906114559 | 63 | 74 | 0.0 | 1.0 | 0.00 | 0.00 | 0.00 | 1 | 1014.7 |
| 20260906113049 | 62 | 7 | 0.0 | 0.0 | 0.00 | 0.00 | 0.00 | 1 | 1014.4 |
| 20260906111545 | 61 | 7 | 0.0 | 0.0 | 0.00 | 0.00 | 0.00 | 1 | 1014.3 |
| 20260906110040 | 61 | 7 | 0.0 | 0.0 | 0.00 | 0.00 | 0.00 | 1 | 1014.3 |
| 20260906104540 | 61 | 7 | 0.0 | 0.0 | 0.00 | 0.00 | 0.00 | 1 | 1014.1 |
| 20260906103031 | 61 | 7 | 0.0 | 0.0 | 0.00 | 0.00 | 0.00 | 1 | 1013.9 |
| 20260906101527 | 61 | 7 | 0.0 | 0.0 | 0.00 | 0.00 | 0.00 | 1 | 1013.7 |
| 20260906100023 | 62 | 7 | 0.0 | 0.0 | 0.00 | 0.00 | 0.00 | 1 | 1013.6 |
| 20260906094539 | 62 | 7 | 0.0 | 0.0 | 0.00 | 0.00 | 0.00 | 1 | 1013.4 |
| 20260906093018 | 62 | 7 | 0.0 | 0.0 | 0.00 | 0.00 | 0.00 | 1 | 1013.2 |
| 20260906091508 | 62 | 7 | 0.0 | 0.0 | 0.00 | 0.00 | 0.00 | 1 | 1013.0 |
| 20260906090004 | 62 | 7 | 0.0 | 0.0 | 0.00 | 0.00 | 0.00 | 1 | 1012.8 |
| 20260906084501 | 63 | 7 | 0.0 | 0.0 | 0.00 | 0.00 | 0.00 | 1 | 1012.7 |
| 20260906083100 | 63 | 7 | 0.0 | 0.0 | 0.00 | 0.00 | 0.00 | 1 | 1012.8 |
| 20260906081602 | 63 | 7 | 0.0 | 0.0 | 0.00 | 0.00 | 0.00 | 1 | 1012.6 |
| 20260906080059 | 63 | 7 | 0.0 | 0.0 | 0.00 | 0.00 | 0.00 | 1 | 1012.4 |
| 20260906074554 | 63 | 7 | 0.0 | 0.0 | 0.00 | 0.00 | 0.00 | 1 | 1012.5 |
| 20260906073046 | 63 | 7 | 0.0 | 0.0 | 0.00 | 0.00 | 0.00 | 1 | 1012.5 |
| 20260906071542 | 64 | 7 | 0.0 | 0.0 | 0.00 | 0.00 | 0.00 | 1 | 1012.5 |
| 20260906070037 | 64 | 7 | 0.0 | 0.0 | 0.00 | 0.00 | 0.00 | 1 | 1012.3 |
| 20260906064533 | 64 | 7 | 0.0 | 0.0 | 0.00 | 0.00 | 0.00 | 1 | 1012.5 |
| 20260906063031 | 64 | 7 | 0.0 | 0.0 | 0.00 | 0.00 | 0.00 | 1 | 1012.5 |
| 20260906061528 | 64 | 7 | 0.0 | 0.0 | 0.00 | 0.00 | 0.00 | 1 | 1012.6 |
| 20260906060019 | 64 | 7 | 0.0 | 1.0 | 0.00 | 0.00 | 0.00 | 1 | 1012.8 |
| 20260906054518 | 64 | 7 | 0.0 | 1.0 | 0.00 | 0.00 | 0.00 | 1 | 1012.8 |
| 20260906053011 | 64 | 7 | 0.0 | 0.0 | 0.00 | 0.00 | 0.00 | 1 | 1012.9 |
| 20260906051507 | 65 | 7 | 0.0 | 0.0 | 0.00 | 0.00 | 0.00 | 1 | 1012.8 |
| 20260906050002 | 65 | 7 | 0.0 | 0.0 | 0.00 | 0.00 | 0.00 | 1 | 1012.8 |
| 20260906044602 | 66 | 7 | 0.0 | 1.0 | 0.00 | 0.00 | 0.00 | 1 | 1012.9 |
| 20260906043053 | 65 | 7 | 0.0 | 1.0 | 0.00 | 0.00 | 0.00 | 1 | 1012.8 |
| 20260906041549 | 66 | 7 | 0.0 | 0.0 | 0.00 | 0.00 | 0.00 | 1 | 1012.6 |
| 20260906040052 | 66 | 7 | 0.0 | 0.0 | 0.00 | 0.00 | 0.00 | 1 | 1012.7 |
| 20260906034540 | 66 | 7 | 0.0 | 0.0 | 0.00 | 0.00 | 0.00 | 1 | 1012.7 |
| 20260906033045 | 66 | 67 | 0.0 | 0.0 | 0.00 | 0.00 | 0.00 | 1 | 1012.7 |
| 20260906031538 | 66 | 79 | 0.0 | 1.0 | 0.00 | 0.00 | 0.00 | 1 | 1012.6 |
| 20260906030027 | 66 | 81 | 0.0 | 0.0 | 0.00 | 0.00 | 0.00 | 1 | 1012.4 |
| 20260906024539 | 67 | 81 | 0.0 | 0.0 | 0.00 | 0.00 | 0.00 | 1 | 1012.5 |
| 20260906023022 | 67 | 82 | 0.0 | 0.0 | 0.00 | 0.00 | 0.00 | 1 | 1012.5 |
| 20260906021514 | 68 | 82 | 0.0 | 0.0 | 0.00 | 0.00 | 0.00 | 1 | 1012.4 |
| 20260906020010 | 69 | 82 | 0.0 | 0.0 | 0.00 | 0.00 | 0.00 | 1 | 1012.4 |
| 20260906014509 | 70 | 77 | 0.0 | 2.0 | 0.00 | 0.00 | 0.00 | 1 | 1012.3 |
| 20260906013003 | 70 | 32 | 0.0 | 1.0 | 0.00 | 0.00 | 0.00 | 1 | 1011.9 |
| 20260906011604 | 70 | 48 | 0.0 | 1.0 | 0.00 | 0.00 | 0.00 | 1 | 1011.8 |
| 20260906010054 | 70 | 48 | 0.0 | 0.0 | 0.00 | 0.00 | 0.00 | 1 | 1011.8 |
| 20260906004549 | 70 | 48 | 0.0 | 0.0 | 0.00 | 0.00 | 0.00 | 1 | 1011.6 |
| 20260906003043 | 71 | 48 | 0.0 | 0.0 | 0.00 | 0.00 | 0.00 | 1 | 1011.4 |
| 20260906001541 | 71 | 48 | 0.0 | 0.0 | 0.00 | 0.00 | 0.00 | 6 | 1011.1 |
| 20260906000039 | 72 | 48 | 0.0 | 0.0 | 0.00 | 0.00 | 0.00 | 14 | 1011.0 |
| 20260905234532 | 73 | 48 | 0.0 | 1.0 | 0.00 | 0.00 | 0.00 | 20 | 1010.8 |
| 20260905233026 | 74 | 48 | 0.0 | 0.0 | 0.00 | 0.00 | 0.00 | 24 | 1010.8 |
| 20260905231521 | 75 | 48 | 0.0 | 1.0 | 0.00 | 0.00 | 0.00 | 28 | 1010.9 |
| 20260905230016 | 76 | 56 | 0.0 | 1.0 | 0.00 | 0.00 | 0.00 | 31 | 1010.8 |
| 20260905224511 | 77 | 74 | 0.0 | 2.0 | 0.00 | 0.00 | 0.00 | 31 | 1010.7 |
| 20260905223007 | 78 | 80 | 0.0 | 1.0 | 0.00 | 0.00 | 0.00 | 31 | 1010.6 |
| 20260905221503 | 78 | 74 | 0.0 | 1.0 | 0.00 | 0.00 | 0.00 | 30 | 1010.5 |
| 20260905220058 | 77 | 76 | 0.0 | 0.0 | 0.00 | 0.00 | 0.00 | 30 | 1010.4 |
| 20260905214556 | 77 | 34 | 0.0 | 1.0 | 0.00 | 0.00 | 0.00 | 31 | 1010.4 |
| 20260905213100 | 77 | 33 | 0.0 | 3.0 | 0.00 | 0.00 | 0.00 | 32 | 1010.3 |
| 20260905211546 | 77 | 33 | 0.0 | 2.0 | 0.00 | 0.00 | 0.00 | 33 | 1010.2 |